Date String (YYYY-MM-DD hh:mm:ss) UTC,Instrument flags,absolute air pressure of the measurement (hPa),sample flow rate (lpm),inlet stack bypass flow (lpm),air temperature of the measurement (°C),ambient temperature measured by the external sensor (°C),aerosol sample conditioner tube jacket temperature (°C),OPC LED temperature (°C),internal box temperature (°C),relative humidity of the measurement (%),span deviation,mass concentration of particles derived from Lorenz-Mie calculation of OPC scattering (μg/m³),mass concentration of particles derived from Lorenz-Mie calculation of OPC scattering (μg/m³),mass concentration of particles derived from Lorenz-Mie calculation of OPC scattering (μg/m³)
DateTimeUTC,F1_M11,P_M11,Q1_M11,Q2_M11,T1_M11,T2_M11,T3_M11,T4_M11,T5_M11,U1_M11,ZSPAN_M11,X0_M11,X2_M11,X1_M11
2024-03-14 12:00:00,SystemResetWarning,0828.6,5.00,000.00,018.6,017.8,000.0,027.1,020.1,23.8,0000.0,0004.14,0001.37,0000.84
2024-03-14 12:01:00,SystemResetWarning,0828.6,5.00,000.00,018.5,017.5,000.0,027.1,020.0,23.9,0000.0,0004.23,0001.35,0000.85
2024-03-14 12:02:00,SystemResetWarning,0828.6,5.00,000.00,018.4,017.3,000.0,027.1,020.0,24.0,0000.0,0004.24,0001.36,0000.86
2024-03-14 12:03:00,SystemResetWarning,0828.6,5.00,000.00,018.4,017.2,000.0,027.1,020.0,24.1,0000.0,0004.04,0001.35,0000.88
2024-03-14 12:04:00,SystemResetWarning,0828.6,5.00,000.00,018.4,017.0,000.0,027.1,020.0,24.2,0000.0,0003.37,0001.34,0000.87
2024-03-14 12:05:00,SystemResetWarning,0828.6,5.00,000.00,018.3,016.9,000.0,027.2,020.0,24.5,0000.0,0003.42,0001.36,0000.88
2024-03-14 12:06:00,SystemResetWarning,0828.6,5.00,000.00,018.3,016.8,000.0,027.2,020.0,25.8,0000.0,0004.34,0001.38,0000.89
2024-03-14 12:07:00,SystemResetWarning,0828.6,5.00,000.00,018.3,016.7,000.0,027.2,020.0,25.2,0000.0,0004.50,0001.37,0000.90
2024-03-14 12:08:00,SystemResetWarning,0828.6,5.00,000.00,018.3,016.7,000.0,027.2,020.0,24.7,0000.0,0005.58,0001.41,0000.91
2024-03-14 12:09:00,SystemResetWarning,0828.6,5.02,000.00,018.3,017.2,000.0,027.2,020.2,24.6,0000.0,0006.51,0001.42,0000.92
2024-03-14 12:10:00,SystemResetWarning,0828.7,5.00,000.00,018.5,018.3,000.0,027.3,020.8,24.2,0000.0,0007.08,0001.43,0000.94
2024-03-14 12:11:00,SystemResetWarning,0828.7,5.00,000.00,018.8,019.2,000.0,027.3,021.2,23.8,0000.0,0007.43,0001.49,0000.98
2024-03-14 12:12:00,SystemResetWarning,0828.7,4.99,000.00,018.9,019.1,000.0,027.3,021.1,23.7,0000.0,0007.31,0001.48,0000.99
2024-03-14 12:13:00,SystemResetWarning,0828.7,4.99,000.00,018.9,018.8,000.0,027.2,020.8,23.7,0000.0,0007.29,0001.50,0001.01
2024-03-14 12:14:00,SystemResetWarning,0828.7,5.00,000.00,018.8,018.4,000.0,027.2,020.6,23.7,0000.0,0007.64,0001.54,0001.02
2024-03-14 12:15:00,SystemResetWarning,0828.7,5.00,000.00,018.7,018.1,000.0,027.2,020.3,23.8,0000.0,0008.04,0001.53,0001.03
2024-03-14 12:16:00,SystemResetWarning,0828.7,5.01,000.00,018.6,017.8,000.0,027.2,020.2,24.0,0000.0,0008.89,0001.57,0001.07
2024-03-14 12:17:00,SystemResetWarning,0828.7,5.00,000.00,018.6,017.6,000.0,027.2,020.1,24.2,0000.0,0008.97,0001.63,0001.10
2024-03-14 12:18:00,SystemResetWarning,0828.7,5.00,000.00,018.5,017.4,000.0,027.2,020.0,24.2,0000.0,0008.92,0001.67,0001.11
2024-03-14 12:19:00,SystemResetWarning,0828.7,5.00,000.00,018.4,017.2,000.0,027.2,020.0,24.3,0000.0,0008.60,0001.67,0001.13
2024-03-14 12:20:00,SystemResetWarning,0828.8,5.00,000.00,018.4,017.1,000.0,027.2,020.0,24.4,0000.0,0007.58,0001.66,0001.12
2024-03-14 12:21:00,SystemResetWarning,0828.8,4.99,000.00,018.4,017.0,000.0,027.2,020.0,24.5,0000.0,0006.98,0001.63,0001.12
2024-03-14 12:22:00,SystemResetWarning,0828.8,4.99,000.00,018.3,016.9,000.0,027.2,020.0,24.5,0000.0,0006.49,0001.59,0001.12
2024-03-14 12:23:00,SystemResetWarning,0828.8,5.00,000.00,018.3,016.8,000.0,027.2,020.0,24.6,0000.0,0006.65,0001.62,0001.12
2024-03-14 12:24:00,SystemResetWarning,0828.8,5.00,000.00,018.3,016.7,000.0,027.2,020.0,24.6,0000.0,0007.01,0001.64,0001.12
2024-03-14 12:25:00,SystemResetWarning,0828.8,5.02,000.00,018.3,017.3,000.0,027.2,020.2,24.6,0000.0,0006.47,0001.62,0001.12
2024-03-14 12:26:00,SystemResetWarning,0829.0,5.00,000.00,018.5,018.4,000.0,027.3,020.8,24.3,0000.0,0005.56,0001.62,0001.12
2024-03-14 12:27:00,SystemResetWarning,0829.0,4.99,000.00,018.8,019.3,000.0,027.3,021.2,23.9,0000.0,0004.00,0001.58,0001.11
2024-03-14 12:28:00,SystemResetWarning,0828.9,4.99,000.00,018.9,019.2,000.0,027.3,021.1,23.8,0000.0,0003.35,0001.54,0001.10
2024-03-14 12:29:00,SystemResetWarning,0829.0,5.00,000.00,018.9,018.8,000.0,027.3,020.8,23.8,0000.0,0002.89,0001.49,0001.08
2024-03-14 12:30:00,SystemResetWarning,0829.0,5.00,000.00,018.8,018.5,000.0,027.2,020.6,23.9,0000.0,0002.75,0001.47,0001.08
2024-03-14 12:31:00,SystemResetWarning,0829.0,5.00,000.00,018.8,018.1,000.0,027.2,020.4,24.0,0000.0,0002.70,0001.45,0001.08
2024-03-14 12:32:00,SystemResetWarning,0829.0,5.01,000.00,018.7,017.8,000.0,027.2,020.2,24.1,0000.0,0002.74,0001.43,0001.09
2024-03-14 12:33:00,SystemResetWarning,0828.9,5.00,000.00,018.6,017.5,000.0,027.2,020.1,24.2,0000.0,0002.89,0001.47,0001.10
2024-03-14 12:34:00,SystemResetWarning,0829.0,5.00,000.00,018.5,017.3,000.0,027.2,020.0,24.4,0000.0,0002.98,0001.50,0001.12
2024-03-14 12:35:00,SystemResetWarning,0829.0,5.00,000.00,018.4,017.2,000.0,027.2,020.0,24.5,0000.0,0003.05,0001.58,0001.14
2024-03-14 12:36:00,SystemResetWarning,0829.0,5.00,000.00,018.4,017.0,000.0,027.2,020.0,24.6,0000.0,0003.09,0001.59,0001.17
2024-03-14 12:37:00,SystemResetWarning,0829.0,5.00,000.00,018.4,016.9,000.0,027.2,020.0,24.6,0000.0,0004.03,0001.61,0001.20
2024-03-14 12:38:00,SystemResetWarning,0829.0,5.00,000.00,018.3,016.8,000.0,027.2,020.0,24.7,0000.0,0004.71,0001.65,0001.22
2024-03-14 12:39:00,SystemResetWarning,0829.0,4.99,000.00,018.3,016.8,000.0,027.2,020.0,24.8,0000.0,0004.88,0001.72,0001.25
2024-03-14 12:40:00,SystemResetWarning,0829.0,4.99,000.00,018.3,016.7,000.0,027.2,020.0,24.8,0000.0,0004.86,0001.74,0001.28
2024-03-14 12:41:00,SystemResetWarning,0829.0,5.01,000.00,018.3,017.3,000.0,027.2,020.2,24.8,0000.0,0005.09,0001.82,0001.30
2024-03-14 12:42:00,SystemResetWarning,0829.1,5.01,000.00,018.6,018.4,000.0,027.3,020.8,24.5,0000.0,0005.39,0001.93,0001.34
2024-03-14 12:43:00,SystemResetWarning,0829.1,5.00,000.00,018.8,019.2,000.0,027.3,021.3,24.1,0000.0,0005.43,0001.98,0001.38
2024-03-14 12:44:00,SystemResetWarning,0829.1,4.98,000.00,018.9,019.1,000.0,027.3,021.1,24.0,0000.0,0006.06,0002.01,0001.41
2024-03-14 12:45:00,SystemResetWarning,0829.0,5.01,000.00,018.9,018.7,000.0,027.3,020.8,24.1,0000.0,0007.39,0002.02,0001.44
2024-03-14 12:46:00,SystemResetWarning,0829.1,5.00,000.00,018.8,018.4,000.0,027.2,020.5,24.2,0000.0,0007.27,0002.03,0001.47
2024-03-14 12:47:00,SystemResetWarning,0829.1,5.00,000.00,018.7,018.0,000.0,027.2,020.3,24.3,0000.0,0007.20,0002.06,0001.49
2024-03-14 12:48:00,SystemResetWarning,0829.1,5.00,000.00,018.6,017.7,000.0,027.2,020.1,24.4,0000.0,0006.59,0002.14,0001.51
2024-03-14 12:49:00,SystemResetWarning,0829.1,5.01,000.00,018.6,017.4,000.0,027.2,020.0,24.6,0000.0,0006.21,0002.18,0001.56
2024-03-14 12:50:00,SystemResetWarning,0829.1,5.01,000.00,018.5,017.2,000.0,027.2,020.0,24.8,0000.0,0006.14,0002.16,0001.58
2024-03-14 12:51:00,SystemResetWarning,0829.1,5.00,000.00,018.4,017.0,000.0,027.2,020.0,24.9,0000.0,0006.17,0002.19,0001.59
2024-03-14 12:52:00,SystemResetWarning,0829.2,4.99,000.00,018.4,016.9,000.0,027.2,020.0,25.0,0000.0,0006.20,0002.18,0001.62
2024-03-14 12:53:00,SystemResetWarning,0829.2,4.99,000.00,018.4,016.8,000.0,027.2,020.0,25.0,0000.0,0008.15,0002.20,0001.65
2024-03-14 12:54:00,SystemResetWarning,0829.2,5.00,000.00,018.3,016.8,000.0,027.2,020.0,25.0,0000.0,0008.32,0002.26,0001.67
2024-03-14 12:55:00,SystemResetWarning,0829.2,5.01,000.00,018.3,016.9,000.0,027.2,020.1,25.1,0000.0,0008.17,0002.27,0001.68
2024-03-14 12:56:00,SystemResetWarning,0829.2,5.01,000.00,018.5,018.0,000.0,027.3,020.6,24.9,0000.0,0007.22,0002.28,0001.69
2024-03-14 12:57:00,SystemResetWarning,0829.3,4.99,000.00,018.8,019.0,000.0,027.4,021.2,24.6,0000.0,0007.48,0002.30,0001.70
2024-03-14 12:58:00,SystemResetWarning,0829.4,4.99,000.00,019.0,019.3,000.0,027.3,021.3,24.2,0000.0,0007.40,0002.32,0001.75
2024-03-14 12:59:00,SystemResetWarning,0829.2,4.99,000.00,018.9,018.9,000.0,027.3,020.9,24.2,0000.0,0007.36,0002.37,0001.78
